Find Starlink 36372

NORAD ID: 67889 Int'l Des: 2026-035 Owner: SPXS Country: US Constellation: starlink operational
LEOCIRCULARRETROGRADE

現在のビュー

3D地球を読み込み中...

Starlink 36372について

説明を読み込み中...

次回通過

Passes for default location (London). Set your location on the main map for personalized predictions.

高度履歴

Loading altitude history...

軌道要素

1 67889U 26035L 26145.33057588 .00017994 00000-0 55827-3 0 9991
2 67889 97.2855 78.8565 0003104 69.2257 290.9318 15.33446192 15730
Epoch: May 25, 2026 • Age: 27 hours

現在のステータス

高度 467.2 km
速度 7.63 km/s
衛星直下点 3.21°N, 36.96°E
打ち上げ日 Feb 21, 2026
運用期間 0.2 years
タイプ internet

技術仕様

分類 Payload
質量 575.00 kg
乾燥質量 530.00 kg
総質量 575.00 kg
長さ 0.30 m
直径 4.10 m
スパン 29.00 m
形状 Box + pan
製造者 SPXS
バスタイプ Starlink V2MO
フェーズステータス In Orbit
所有者/国 SPXS/US

Most Searched